Weather History for KAHQ - December, 2011

Change the Weather History Date:

Thursday, December 15, 2011

  Actual Average Record
Temperature  
Mean Temperature 28 °F -  
Max Temperature 33 °F 37 °F 57 °F (1977)
Min Temperature 23 °F 17 °F -15 °F (1989)
Degree Days  
Heating Degree Days 37    
Moisture  
Dew Point 25 °F    
Average Humidity 79    
Maximum Humidity 93    
Minimum Humidity 64    
Precipitation  
Precipitation 0.00 in - - ()
Sea Level Pressure  
Sea Level Pressure 30.20 in    
Wind  
Wind Speed 13 mph (NW)    
Max Wind Speed 24 mph    
Max Gust Speed 34 mph    
Visibility 10 miles    
Events      
Averages and records for this station are not official NWS values.
T = Trace of Precipitation, MM = Missing Value Source: NWS Daily Summary

Daily Weather History Graph

Daily Weather History Graph

Search for Another Location

Airport or City:

Trip Planner

Search our weather history database for the weather conditions in past years. The results will help you decide how hot, cold, wet, or windy it might be!

Date:

Astronomy

Dec. 15, 2011 Rise Set
Actual Time 7:44 AM CST 4:58 PM CST
Civil Twilight 7:13 AM CST 5:29 PM CST
Nautical Twilight 6:38 AM CST 6:04 PM CST
Astronomical Twilight 6:05 AM CST 6:37 PM CST
Moon 10:28 PM CST (12/15) 10:59 AM CST (12/15)
Length of Visible Light 10h 15m
Length of Day
9h 13m
Waning Gibbous, 74% of the Moon is Illuminated
Dec 15
Waning Gibbous
Dec 17
Last Quarter
Dec 24
New
Jan 1
First Quarter
Jan 9
Full

Hourly Weather History & Observations

Time (CST) Temp. Windchill Dew Point Humidity Pressure Visibility Wind Dir Wind Speed Gust Speed Precip Events Conditions
12:15 AM 32.0 °F 25.6 °F 30.2 °F 93% 29.91 in 7.0 mi West 6.9 mph - N/A   Clear
12:35 AM 32.0 °F 26.4 °F 30.2 °F 93% 29.91 in 7.0 mi WNW 5.8 mph - N/A   Clear
12:55 AM 32.0 °F 24.2 °F 30.2 °F 93% 29.92 in 10.0 mi WNW 9.2 mph - N/A   Clear
1:15 AM 32.0 °F 22.1 °F 30.2 °F 93% 29.92 in 10.0 mi NW 13.8 mph - N/A   Clear
1:35 AM 33.8 °F 22.8 °F 30.2 °F 87% 29.93 in 10.0 mi NW 18.4 mph - N/A   Clear
1:55 AM 33.8 °F 23.2 °F 30.2 °F 87% 29.93 in 10.0 mi NW 17.3 mph - N/A   Clear
2:15 AM 32.0 °F 21.6 °F 30.2 °F 93% 29.95 in 10.0 mi NNW 15.0 mph 23.0 mph N/A   Clear
2:55 AM 32.0 °F 21.6 °F 28.4 °F 87% 29.98 in 10.0 mi NNW 15.0 mph 21.9 mph N/A   Scattered Clouds
3:15 AM 32.0 °F 22.1 °F 28.4 °F 87% 30.00 in 10.0 mi NNW 13.8 mph 17.3 mph N/A   Mostly Cloudy
3:35 AM 33.8 °F 22.5 °F 28.4 °F 81% 30.02 in 10.0 mi NNW 19.6 mph 28.8 mph N/A   Overcast
3:55 AM 32.0 °F 19.5 °F 28.4 °F 87% 30.03 in 10.0 mi NNW 21.9 mph 27.6 mph N/A   Overcast
4:15 AM 32.0 °F 18.9 °F 26.6 °F 80% 30.04 in 10.0 mi NNW 24.2 mph 29.9 mph N/A   Overcast
4:35 AM 32.0 °F 18.9 °F 26.6 °F 80% 30.05 in 10.0 mi NNW 24.2 mph 29.9 mph N/A   Overcast
4:55 AM 32.0 °F 19.2 °F 26.6 °F 80% 30.07 in 10.0 mi NNW 23.0 mph 34.5 mph N/A   Overcast
5:15 AM 32.0 °F 20.1 °F 26.6 °F 80% 30.08 in 10.0 mi NNW 19.6 mph 28.8 mph N/A   Overcast
5:35 AM 32.0 °F 20.8 °F 24.8 °F 75% 30.09 in 10.0 mi NNW 17.3 mph 34.5 mph N/A   Overcast
5:55 AM 32.0 °F 20.5 °F 24.8 °F 75% 30.10 in 10.0 mi NNW 18.4 mph 27.6 mph N/A   Overcast
6:35 AM 32.0 °F 20.8 °F 23.0 °F 69% 30.11 in 10.0 mi NNW 17.3 mph 31.1 mph N/A   Mostly Cloudy
6:55 AM 32.0 °F 21.2 °F 23.0 °F 69% 30.12 in 10.0 mi NNW 16.1 mph 27.6 mph N/A   Overcast
7:15 AM 32.0 °F 20.8 °F 23.0 °F 69% 30.12 in 10.0 mi NNW 17.3 mph 28.8 mph N/A   Mostly Cloudy
7:35 AM 32.0 °F 20.8 °F 21.2 °F 64% 30.14 in 10.0 mi NNW 17.3 mph 21.9 mph N/A   Clear
8:15 AM 30.2 °F 20.2 °F 26.6 °F 86% 30.16 in 10.0 mi NW 12.7 mph - N/A   Overcast
8:35 AM 30.2 °F 18.5 °F 23.0 °F 75% 30.18 in 10.0 mi NW 17.3 mph 20.7 mph N/A   Overcast
9:35 AM 32.0 °F 20.5 °F 23.0 °F 69% 30.20 in 10.0 mi NNW 18.4 mph 24.2 mph N/A   Clear
9:55 AM 32.0 °F 22.5 °F 23.0 °F 69% 30.22 in 10.0 mi NNW 12.7 mph - N/A   Mostly Cloudy
10:15 AM 32.0 °F 22.1 °F 24.8 °F 75% 30.23 in 10.0 mi NNW 13.8 mph - N/A   Mostly Cloudy
10:35 AM 32.0 °F 20.8 °F 23.0 °F 69% 30.24 in 10.0 mi NNW 17.3 mph 23.0 mph N/A   Overcast
10:55 AM 32.0 °F 19.8 °F 23.0 °F 69% 30.24 in 10.0 mi NNW 20.7 mph 25.3 mph N/A   Overcast
11:15 AM 32.0 °F 20.8 °F 24.8 °F 75% 30.24 in 10.0 mi NNW 17.3 mph 25.3 mph N/A   Mostly Cloudy
11:35 AM 32.0 °F 20.8 °F 23.0 °F 69% 30.24 in 10.0 mi NNW 17.3 mph 25.3 mph N/A   Mostly Cloudy
11:55 AM 32.0 °F 19.8 °F 23.0 °F 69% 30.24 in 10.0 mi NW 20.7 mph 24.2 mph N/A   Overcast
12:35 PM 32.0 °F 20.5 °F 23.0 °F 69% 30.24 in 10.0 mi NNW 18.4 mph 26.5 mph N/A   Mostly Cloudy
12:55 PM 32.0 °F 22.1 °F 24.8 °F 75% 30.24 in 10.0 mi NNW 13.8 mph - N/A   Mostly Cloudy
1:15 PM 33.8 °F 22.8 °F 24.8 °F 70% 30.24 in 10.0 mi NW 18.4 mph 25.3 mph N/A   Overcast
1:35 PM 32.0 °F 20.5 °F 23.0 °F 69% 30.25 in 10.0 mi NNW 18.4 mph 23.0 mph N/A   Mostly Cloudy
1:55 PM 33.8 °F 23.5 °F 24.8 °F 70% 30.25 in 10.0 mi NW 16.1 mph 24.2 mph N/A   Mostly Cloudy
2:15 PM 32.0 °F 21.6 °F 24.8 °F 75% 30.25 in 10.0 mi NNW 15.0 mph 19.6 mph N/A   Scattered Clouds
2:35 PM 33.8 °F 23.2 °F 24.8 °F 70% 30.25 in 10.0 mi North 17.3 mph 20.7 mph N/A   Mostly Cloudy
2:55 PM 32.0 °F 21.2 °F 23.0 °F 69% 30.25 in 10.0 mi NNW 16.1 mph - N/A   Mostly Cloudy
3:15 PM 33.8 °F 24.8 °F 23.0 °F 65% 30.26 in 10.0 mi NNW 12.7 mph 19.6 mph N/A   Scattered Clouds
3:35 PM 32.0 °F 22.5 °F 23.0 °F 69% 30.27 in 10.0 mi NNW 12.7 mph - N/A   Scattered Clouds
3:55 PM 32.0 °F 22.1 °F 23.0 °F 69% 30.28 in 10.0 mi North 13.8 mph - N/A   Scattered Clouds
4:15 PM 32.0 °F 24.2 °F 24.8 °F 75% 30.29 in 10.0 mi North 9.2 mph - N/A   Mostly Cloudy
4:35 PM 32.0 °F 24.8 °F 23.0 °F 69% 30.29 in 10.0 mi NNW 8.1 mph - N/A   Scattered Clouds
4:55 PM 32.0 °F 24.8 °F 23.0 °F 69% 30.30 in 10.0 mi NNW 8.1 mph - N/A   Clear
5:15 PM 32.0 °F 26.4 °F 23.0 °F 69% 30.31 in 10.0 mi NNW 5.8 mph - N/A   Clear
5:35 PM 30.2 °F 23.4 °F 24.8 °F 80% 30.31 in 10.0 mi North 6.9 mph - N/A   Clear
5:55 PM 30.2 °F 25.4 °F 24.8 °F 80% 30.31 in 10.0 mi NNW 4.6 mph - N/A   Clear
6:15 PM 28.4 °F 23.3 °F 24.8 °F 86% 30.33 in 10.0 mi NW 4.6 mph - N/A   Clear
6:35 PM 28.4 °F 23.3 °F 23.0 °F 80% 30.34 in 10.0 mi NNW 4.6 mph - N/A   Clear
6:55 PM 28.4 °F - 23.0 °F 80% 30.34 in 10.0 mi Calm Calm - N/A   Clear
7:15 PM 28.4 °F 24.6 °F 24.8 °F 86% 30.34 in 10.0 mi NW 3.5 mph - N/A   Clear
7:35 PM 28.4 °F 23.3 °F 23.0 °F 80% 30.35 in 10.0 mi NW 4.6 mph - N/A   Clear
8:15 PM 26.6 °F 22.6 °F 23.0 °F 86% 30.36 in 10.0 mi WNW 3.5 mph - N/A   Clear
8:35 PM 26.6 °F 21.2 °F 23.0 °F 86% 30.36 in 10.0 mi WNW 4.6 mph - N/A   Clear
8:55 PM 26.6 °F 21.2 °F 23.0 °F 86% 30.37 in 10.0 mi WNW 4.6 mph - N/A   Clear
9:35 PM 24.8 °F 20.5 °F 21.2 °F 86% 30.38 in 10.0 mi West 3.5 mph - N/A   Clear
9:55 PM 24.8 °F 19.1 °F 21.2 °F 86% 30.39 in 10.0 mi West 4.6 mph - N/A   Clear
10:15 PM 24.8 °F 19.1 °F 21.2 °F 86% 30.39 in 10.0 mi West 4.6 mph - N/A   Clear
10:35 PM 23.0 °F 18.4 °F 21.2 °F 93% 30.39 in 10.0 mi WNW 3.5 mph - N/A   Clear
10:55 PM 24.8 °F - 21.2 °F 86% 30.39 in 10.0 mi Calm Calm - N/A   Clear
11:15 PM 23.0 °F 18.4 °F 21.2 °F 93% 30.39 in 10.0 mi NNW 3.5 mph - N/A   Clear
11:35 PM 23.0 °F 15.8 °F 21.2 °F 93% 30.39 in 10.0 mi NNW 5.8 mph - N/A   Clear
11:55 PM 23.0 °F 18.4 °F 19.4 °F 86% 30.40 in 10.0 mi North 3.5 mph - N/A   Clear